Location: Prague
(50.0830°N, 14.4670°E)
Time: 08:38:42
(UTC+01:00)

XW-2F - Pass Details

Date: 05 December 2021
Orbit: 494 x 515 km, 97.5° (Epoch: 18 January)

Event Time Altitude Azimuth Distance (km) Brightness Sun altitude
Rises 06:09:00 0° 16° (NNE) 2,656 ? -14.5°
Reaches altitude 10° 06:11:09 10° 21° (NNE) 1,762 ? -14.2°
Maximum altitude 06:14:54 58° 101° (E) 611 ? -13.6°
Drops below altitude 10° 06:18:37 10° 181° (S) 1,742 ? -13.0°
Sets 06:20:43 0° 185° (S) 2,621 ? -12.7°
